sat.trackr.live / text

‹ back to catalog

GOSAT 2 (IBUKI 1)

NORAD 43672 · 2018-084B

PAYLOAD ACTIVE UNKNOWN

§ Identity

Operator
Country
JPN
Launch date
2018-10-29
Launch site
TANSC
Launch vehicle
Mass (kg)
RCS (m²)

External: N2YO · Heavens-Above · Gunter

§ Orbital elements

Epoch: 2026-05-25T00:51:20.757024Z

Period
97.02 min
Inclination
97.8775°
Eccentricity
0.0001390
Mean motion
14.84238039 rev/d
Perigee alt
615.0 km
Apogee alt
617.0 km
Semi-major
6,994.1 km
B*
1.7304e-4
RAAN
256.8192°
Arg perigee
93.6717°
Mean anomaly
266.4656°
Rev number
41,012

§ Raw data

GOSAT 2 (IBUKI 1)1 43672U 18084B   26145.03565691  .00001396  00000+0  17304-3 0  99922 43672  97.8775 256.8192 0001390  93.6717 266.4656 14.84238039410121

JSON: /api/v1/satellites/43672 · /tle

For live sub-satellite position, see the globe view (requires WebGL).

§ Visibility from observer

Set your observer location to see the next 7 days of passes ≥ 10°. The values pass through the URL so the page stays shareable.

No JS? Fill the form by hand. The geolocation button needs JavaScript.